Hourly Weather Otradnyy

Today, 1 August, Sunday

Time Temperature Precipitation Wind Pressure Humidity
00:00 +27°C° 0 mm 2 mps 756 mmHg 55%
01:00 +27°C° 0 mm 2 mps 756 mmHg 56%
02:00 +26°C° 0 mm 2 mps 756 mmHg 57%
03:00 +26°C° 0 mm 2 mps 756 mmHg 58%
04:00 +26°C° 0 mm 2 mps 756 mmHg 58%
05:00 +26°C° 0 mm 2 mps 756 mmHg 58%
06:00 +26°C° 0 mm 2 mps 756 mmHg 58%
07:00 +28°C° 0 mm 2 mps 756 mmHg 49%
08:00 +31°C° 0 mm 2 mps 756 mmHg 41%
09:00 +34°C° 0 mm 2 mps 756 mmHg 33%
10:00 +36°C° 0 mm 2 mps 756 mmHg 28%
11:00 +38°C° 0 mm 2 mps 756 mmHg 24%
12:00 +39°C° 0 mm 1 mps 756 mmHg 20%
13:00 +39°C° 0 mm 1 mps 755 mmHg 19%
14:00 +40°C° 0 mm 2 mps 755 mmHg 18%
15:00 +40°C° 0 mm 2 mps 755 mmHg 18%
16:00 +39°C° 0 mm 2 mps 755 mmHg 19%
17:00 +38°C° 0 mm 2 mps 755 mmHg 20%
18:00 +37°C° 0 mm 2 mps 755 mmHg 22%
19:00 +36°C° 0 mm 2 mps 755 mmHg 24%
20:00 +34°C° 0 mm 2 mps 755 mmHg 26%
21:00 +33°C° 0 mm 3 mps 755 mmHg 29%
22:00 +31°C° 0 mm 3 mps 755 mmHg 29%
23:00 +30°C° 0 mm 2 mps 755 mmHg 30%

Tomorrow, 2 August, Monday

Time Temperature Precipitation Wind Pressure Humidity
00:00 +30°C° 0 mm 2 mps 755 mmHg 31%
01:00 +29°C° 0 mm 2 mps 755 mmHg 32%
02:00 +28°C° 0 mm 2 mps 756 mmHg 33%
03:00 +28°C° 0 mm 2 mps 756 mmHg 34%
04:00 +27°C° 0 mm 2 mps 756 mmHg 35%
05:00 +27°C° 0 mm 2 mps 756 mmHg 36%
06:00 +27°C° 0 mm 2 mps 756 mmHg 38%
07:00 +30°C° 0 mm 2 mps 756 mmHg 33%
08:00 +32°C° 0 mm 2 mps 756 mmHg 28%
09:00 +36°C° 0 mm 2 mps 756 mmHg 23%
10:00 +38°C° 0 mm 2 mps 756 mmHg 20%
11:00 +39°C° 0 mm 2 mps 756 mmHg 18%
12:00 +41°C° 0 mm 2 mps 756 mmHg 16%
13:00 +41°C° 0 mm 2 mps 755 mmHg 15%
14:00 +42°C° 0 mm 2 mps 755 mmHg 15%
15:00 +42°C° 0 mm 2 mps 754 mmHg 14%
16:00 +42°C° 0 mm 3 mps 754 mmHg 15%
17:00 +42°C° 0 mm 3 mps 754 mmHg 15%
18:00 +42°C° 0 mm 3 mps 754 mmHg 16%
19:00 +38°C° 0 mm 3 mps 754 mmHg 18%
20:00 +36°C° 0 mm 3 mps 754 mmHg 21%
21:00 +34°C° 0 mm 3 mps 754 mmHg 23%
22:00 +32°C° 0 mm 2 mps 754 mmHg 26%
23:00 +31°C° 0 mm 2 mps 755 mmHg 28%

Day after tomorrow, 3 August, Tuesday

Time Temperature Precipitation Wind Pressure Humidity
00:00 +30°C° 0 mm 2 mps 755 mmHg 31%
01:00 +29°C° 0 mm 1 mps 755 mmHg 33%
02:00 +29°C° 0 mm 1 mps 755 mmHg 35%
03:00 +28°C° 0 mm 1 mps 755 mmHg 37%
04:00 +28°C° 0 mm 1 mps 755 mmHg 38%
05:00 +28°C° 0 mm 1 mps 755 mmHg 39%
06:00 +29°C° 0 mm 1 mps 755 mmHg 40%
07:00 +31°C° 0 mm 1 mps 755 mmHg 36%
08:00 +35°C° 0 mm 2 mps 755 mmHg 31%
09:00 +37°C° 0 mm 2 mps 755 mmHg 26%
10:00 +39°C° 0 mm 2 mps 755 mmHg 24%
11:00 +40°C° 0 mm 3 mps 755 mmHg 21%
12:00 +43°C° 0 mm 3 mps 755 mmHg 18%
13:00 +43°C° 0 mm 4 mps 754 mmHg 18%
14:00 +43°C° 0 mm 5 mps 754 mmHg 17%
15:00 +44°C° 0 mm 6 mps 754 mmHg 17%
16:00 +42°C° 0 mm 6 mps 754 mmHg 18%
17:00 +41°C° 0 mm 6 mps 754 mmHg 20%
18:00 +40°C° 0 mm 7 mps 754 mmHg 21%
19:00 +38°C° 0 mm 6 mps 755 mmHg 27%
20:00 +35°C° 0 mm 5 mps 755 mmHg 33%
21:00 +32°C° 0 mm 4 mps 755 mmHg 38%
22:00 +30°C° 0 mm 4 mps 756 mmHg 43%
23:00 +29°C° 0 mm 3 mps 756 mmHg 47%

4 August, Wednesday

Time Temperature Precipitation Wind Pressure Humidity
00:00 +28°C° 0 mm 3 mps 756 mmHg 51%
01:00 +28°C° 0 mm 3 mps 756 mmHg 56%
02:00 +27°C° 0 mm 3 mps 757 mmHg 60%
03:00 +26°C° 0 mm 3 mps 757 mmHg 64%
04:00 +26°C° 0 mm 3 mps 757 mmHg 67%
05:00 +26°C° 0 mm 3 mps 758 mmHg 69%
06:00 +25°C° 0 mm 3 mps 758 mmHg 71%
07:00 +27°C° 0 mm 3 mps 758 mmHg 63%
08:00 +29°C° 0 mm 3 mps 759 mmHg 55%
09:00 +31°C° 0 mm 3 mps 759 mmHg 47%
10:00 +33°C° 0 mm 3 mps 759 mmHg 42%
11:00 +35°C° 0 mm 3 mps 759 mmHg 36%
12:00 +36°C° 0 mm 3 mps 758 mmHg 30%
13:00 +37°C° 0 mm 4 mps 758 mmHg 29%
14:00 +37°C° 0 mm 4 mps 758 mmHg 27%
15:00 +37°C° 0 mm 4 mps 758 mmHg 25%
16:00 +37°C° 0 mm 4 mps 758 mmHg 25%
17:00 +36°C° 0 mm 5 mps 758 mmHg 25%
18:00 +36°C° 0 mm 5 mps 758 mmHg 25%
19:00 +34°C° 0 mm 5 mps 758 mmHg 28%
20:00 +30°C° 0 mm 4 mps 759 mmHg 32%
21:00 +28°C° 0 mm 4 mps 759 mmHg 35%
22:00 +27°C° 0 mm 3 mps 759 mmHg 37%
23:00 +26°C° 0 mm 3 mps 759 mmHg 39%

5 August, Thursday

Time Temperature Precipitation Wind Pressure Humidity
00:00 +25°C° 0 mm 3 mps 760 mmHg 41%
01:00 +25°C° 0 mm 3 mps 760 mmHg 42%
02:00 +25°C° 0 mm 3 mps 760 mmHg 42%
03:00 +25°C° 0 mm 3 mps 760 mmHg 43%
04:00 +25°C° 0 mm 3 mps 760 mmHg 45%
05:00 +24°C° 0 mm 2 mps 760 mmHg 46%
06:00 +24°C° 0 mm 2 mps 761 mmHg 48%
07:00 +26°C° 0 mm 3 mps 761 mmHg 43%
08:00 +28°C° 0 mm 3 mps 761 mmHg 38%
09:00 +31°C° 0 mm 3 mps 761 mmHg 34%
10:00 +33°C° 0 mm 3 mps 761 mmHg 30%
11:00 +34°C° 0 mm 3 mps 760 mmHg 27%
12:00 +35°C° 0 mm 3 mps 760 mmHg 23%
13:00 +36°C° 0 mm 4 mps 760 mmHg 22%
14:00 +37°C° 0 mm 4 mps 759 mmHg 20%
15:00 +37°C° 0 mm 4 mps 759 mmHg 19%
16:00 +37°C° 0 mm 4 mps 758 mmHg 19%
17:00 +36°C° 0 mm 4 mps 758 mmHg 19%
18:00 +36°C° 0 mm 5 mps 758 mmHg 19%
19:00 +33°C° 0 mm 4 mps 758 mmHg 23%
20:00 +30°C° 0 mm 4 mps 758 mmHg 26%
21:00 +28°C° 0 mm 3 mps 759 mmHg 30%
22:00 +27°C° 0 mm 3 mps 758 mmHg 31%
23:00 +26°C° 0 mm 3 mps 758 mmHg 32%

6 August, Friday

Time Temperature Precipitation Wind Pressure Humidity
00:00 +25°C° 0 mm 3 mps 758 mmHg 34%
01:00 +25°C° 0 mm 3 mps 758 mmHg 35%
02:00 +24°C° 0 mm 3 mps 758 mmHg 36%
03:00 +24°C° 0 mm 3 mps 757 mmHg 38%
04:00 +24°C° 0 mm 3 mps 758 mmHg 37%
05:00 +24°C° 0 mm 3 mps 758 mmHg 37%
06:00 +24°C° 0 mm 3 mps 758 mmHg 37%
07:00 +27°C° 0 mm 4 mps 757 mmHg 33%
08:00 +30°C° 0 mm 6 mps 757 mmHg 28%
09:00 +34°C° 0 mm 7 mps 757 mmHg 24%
10:00 +35°C° 0 mm 7 mps 756 mmHg 23%
11:00 +38°C° 0 mm 7 mps 756 mmHg 22%
12:00 +39°C° 0 mm 7 mps 755 mmHg 21%
13:00 +40°C° 0 mm 7 mps 755 mmHg 21%
14:00 +40°C° 0 mm 7 mps 755 mmHg 21%
15:00 +40°C° 0 mm 7 mps 754 mmHg 20%
16:00 +40°C° 0 mm 7 mps 754 mmHg 21%
17:00 +39°C° 0 mm 6 mps 754 mmHg 22%
18:00 +39°C° 0 mm 6 mps 754 mmHg 23%
19:00 +36°C° 0 mm 6 mps 754 mmHg 24%
20:00 +35°C° 0 mm 6 mps 754 mmHg 25%
21:00 +33°C° 0 mm 6 mps 754 mmHg 26%
22:00 +33°C° 0 mm 6 mps 754 mmHg 25%
23:00 +32°C° 0 mm 6 mps 754 mmHg 25%
Show more